Regional Weather Roundup
Issued by NWS

Home | Current Version | Previous Version | Graphics & Text | Print | Product List | Glossary On
Versions: 1 2 3 4 5 6 7 8 9 10 11 12 13 14 15 16 17 18 19 20 21 22 23 24 25 26 27 28 29 30 31 32 33 34 35 36 37 38 39 40 41 42 43 44 45 46 47 48 49 50
000
ASUS43 KDTX 301210
RWRMI
MICHIGAN HOURLY REGIONAL WEATHER ROUNDUP
NATIONAL WEATHER SERVICE DETROIT/PONTIAC MI
800 AM EDT TUE AUG 30 2016

NOTE: "FAIR" INDICATES FEW OR NO CLOUDS BELOW 12,000 FEET WITH NO
SIGNIFICANT WEATHER AND/OR OBSTRUCTION TO VISIBILITY.

MIZ047>049-052>055-059>063-066>070-074>076-081>083-301300-
SOUTHEAST LOWER MICHIGAN

CITY           SKY/WX    TMP DP  RH WIND       PRES   REMARKS
ADRIAN         FAIR      64  64 100 CALM      30.20S
6HR MIN TEMP:  61; 6HR MAX TEMP:  64;

ALMA           MOCLDY    68  68 100 SW3       30.17R FOG
ANN ARBOR      FAIR      64  64 100 CALM      30.19R
BAD AXE        FAIR      66  64  93 S5        30.16F
CARO           PTSUNNY   64  64  98 CALM      30.16S
DETROIT CITY   FAIR      71  69  93 W5        30.19R FOG
6HR MIN TEMP:  67; 6HR MAX TEMP:  71;

DETROIT        PTSUNNY   70  65  84 SW7       30.20R HAZE
6HR MIN TEMP:  67; 6HR MAX TEMP:  70;

FLINT          FAIR      68  65  90 S3        30.17S
6HR MIN TEMP:  63; 6HR MAX TEMP:  68;

GROSSE ILE     FAIR      68  66  93 CALM      30.18S
6HR MIN TEMP:  65; 6HR MAX TEMP:  68;

HILLSDALE      FAIR      66  61  83 S3        30.20R
6HR MIN TEMP:  51; 6HR MAX TEMP:  84;

HOWELL         FAIR      68  65  90 S3        30.19R
6HR MIN TEMP:  66; 6HR MAX TEMP:  68;


CITY           SKY/WX    TMP DP  RH WIND       PRES   REMARKS
JACKSON        FAIR      68  64  87 CALM      30.19R
6HR MIN TEMP:  67; 6HR MAX TEMP:  69;

LAMBERTVILLE   FAIR      62  61  95 CALM      30.19F FOG
6HR MIN TEMP:  60; 6HR MAX TEMP:  64;

LANSING        MOCLDY    70  61  73 S6        30.18S
6HR MIN TEMP:  69; 6HR MAX TEMP:  70;

LAPEER         FAIR      64  63  98 CALM      30.19R
6HR MIN TEMP:  60; 6HR MAX TEMP:  64;

MASON          MOCLDY    68  63  84 CALM      30.19S
MONROE         FOG       62  62 100 CALM      30.18R VSB 1/2
6HR MIN TEMP:  60; 6HR MAX TEMP:  63;

MT. CLEMENS    MOSUNNY   68  66  94 CALM      30.17R
6HR MIN TEMP:  63; 6HR MAX TEMP:  68;

PONTIAC        PTSUNNY   69  66  90 VRB3      30.18S
6HR MIN TEMP:  65; 6HR MAX TEMP:  69;

PORT HURON     FAIR      61  61 100 CALM      30.18S
TRI CITIES     FAIR      68  67  96 SW7       30.16S
6HR MIN TEMP:  67; 6HR MAX TEMP:  69;

MIDLAND        FAIR      68  67  97 CALM      30.14S
6HR MIN TEMP:  63; 6HR MAX TEMP:  68;

TROY           FAIR      71  66  84 SW3       30.20R
SAGINAW HB     FAIR      68  64  88 S5        30.15S
$$
MIZ043>046-050>051-056>058-064>065-071>073-077>080-301300-
SOUTHWEST LOWER MICHIGAN

CITY           SKY/WX    TMP DP  RH WIND       PRES   REMARKS
BATTLE CREEK   LGT RAIN  66  65  96 W7        30.20R
6HR MIN TEMP:  66; 6HR MAX TEMP:  69; 6HR PCP: TRACE;

BENTON HARBOR  CLOUDY    70  67  90 CALM      30.17R
6HR MIN TEMP:  69; 6HR MAX TEMP:  75; 6HR PCP:  1.37;

BIG RAPIDS     FAIR      65  64  97 CALM      30.16R FOG
6HR MIN TEMP:  64; 6HR MAX TEMP:  66;

COLDWATER      FAIR      69  63  83 CALM      30.19R
6HR MIN TEMP:  67; 6HR MAX TEMP:  69;

FREMONT        FAIR      66  65  98 CALM      30.16R FOG
HOLLAND        MOCLDY    72  69  90 CALM      30.17R
6HR MIN TEMP:  70; 6HR MAX TEMP:  74;

GRAND RAPIDS   CLOUDY    72  68  87 W5        30.17R
6HR MIN TEMP:  69; 6HR MAX TEMP:  72;

IONIA          MOCLDY    69  65  85 CALM      30.17R
6HR MIN TEMP:  67; 6HR MAX TEMP:  71;

KALAMAZOO      LGT RAIN  70  67  90 N8        30.19R FOG
6HR MIN TEMP:  69; 6HR MAX TEMP:  73; 6HR PCP:  0.08;

LUDINGTON      FAIR      65  65 100 CALM      30.12S FOG
6HR MIN TEMP:  62; 6HR MAX TEMP:  66;

MARSHALL       FAIR      69  64  85 S3        30.18S
6HR MIN TEMP:  67; 6HR MAX TEMP:  70;

MOUNT PLEASANT FAIR      67  67  97 CALM      30.16R
6HR MIN TEMP:  64; 6HR MAX TEMP:  67;

MUSKEGON       MOCLDY    72  70  93 CALM      30.15S
6HR MIN TEMP:  68; 6HR MAX TEMP:  72;

SOUTH HAVEN    LGT RAIN  70  68  95 CALM      30.17R
$$
MIZ016>042-301300-
NORTHERN LOWER MICHIGAN

CITY           SKY/WX    TMP DP  RH WIND       PRES   REMARKS
ALPENA         FAIR      68  64  87 SW3       30.11S
6HR MIN TEMP:  62; 6HR MAX TEMP:  68;

BEAVER ISLAND  MOCLDY    71  70  98 SW5       30.09R FOG
6HR MIN TEMP:  70; 6HR MAX TEMP:  72;

BELLAIRE       MOCLDY    65  63  94 CALM      30.12S
6HR MIN TEMP:  62; 6HR MAX TEMP:  69;

CADILLAC       FOG       63  62  97 CALM      30.16R VSB 1/4
CHARLEVOIX     FAIR      70  67  90 SW7       30.13R
6HR MIN TEMP:  70; 6HR MAX TEMP:  72;

FRANKFORT      MOCLDY    71  69  93 CALM      30.12R FOG
GAYLORD        MOCLDY    68  64  87 SW7       30.14S
6HR MIN TEMP:  66; 6HR MAX TEMP:  68;

GRAYLING       FAIR      61  60  96 CALM      30.16R
6HR MIN TEMP:  58; 6HR MAX TEMP:  67;

HARBOR SPRINGS MOCLDY    71  67  89 SW3       30.10R
HOUGHTON LAKE  FAIR      68  66  93 SW5       30.16R
6HR MIN TEMP:  60; 6HR MAX TEMP:  68;

MANISTEE       FOG       65  65 100 CALM      30.13R VSB<1/4
OSCODA         FAIR      65  65 100 SW6       30.13R
6HR MIN TEMP:  63; 6HR MAX TEMP:  65;

PELLSTON       MOCLDY    70  66  87 CALM      30.10R
6HR MIN TEMP:  67; 6HR MAX TEMP:  72;

ROGERS CITY    FAIR      70  64  83 SW10      30.10S
TRAVERSE CITY  FAIR      70  66  87 S3        30.10S
6HR MIN TEMP:  67; 6HR MAX TEMP:  71;

$$
MIZ007>008-015-301300-
EASTERN UPPER MICHIGAN

CITY           SKY/WX    TMP DP  RH WIND       PRES   REMARKS
KINROSS        FAIR      68  67  96 SW5       30.07F
6HR MIN TEMP:  64; 6HR MAX TEMP:  68;

MACKINAC ISLAN FAIR      71  71 100 W6        30.08S
6HR MIN TEMP:  68; 6HR MAX TEMP:  72;

NEWBERRY       FAIR      68  67  97 W7        30.07S
6HR MIN TEMP:  68; 6HR MAX TEMP:  70;

S. S. MARIE    FAIR      66  64  93 CALM      30.06F
6HR MIN TEMP:  64; 6HR MAX TEMP:  66; 6HR PCP: TRACE;

$$
MIZ004>006-011>014-085-301300-
CENTRAL UPPER MICHIGAN

CITY           SKY/WX    TMP DP  RH WIND       PRES   REMARKS
MANISTIQUE     FAIR      69  67  92 W3        30.08R
6HR MIN TEMP:  68; 6HR MAX TEMP:  71; 6HR PCP:  0.01;

ESCANABA       FAIR      66  66 100 CALM      30.09R
6HR MIN TEMP:  66; 6HR MAX TEMP:  72;

MENOMINEE      FOG      N/A N/A N/A SW5         N/A  VSB 1/4
SAWYER-GWINN   CLEAR     66  64  94 CALM      30.10S
$$
MIZ001>003-009>011-084-301300-
WESTERN UPPER MICHIGAN

CITY           SKY/WX    TMP DP  RH WIND       PRES   REMARKS
IRON MOUNTAIN  FAIR      66  64  93 SE3       30.11R FOG
6HR MIN TEMP:  64; 6HR MAX TEMP:  72; 6HR PCP: TRACE;

HOUGHTON       CLOUDY    67  63  87 N7        30.09R
6HR MIN TEMP:  67; 6HR MAX TEMP:  72;

IRONWOOD       MOCLDY    64  63  96 W3        30.13R
6HR MIN TEMP:  63; 6HR MAX TEMP:  66;

$$

ABBREVIATIONS USED IN REMARKS
   TC - TEMPERATURE IN CELSIUS
  WCI - WIND CHILL INDEX
   HX - HEAT INDEX
  VSB - VISIBILITY




USA.gov is the U.S. government's official web portal to all federal, state and local government web resources and services.